Tracking 27423 objects as of 8-Jun-2023
HD Live streaming from Space Station
objects crossing your sky now

COSMOS 1937

Track COSMOS 1937 now!
10-day predictions
COSMOS 1937 is classified as:


NORAD ID: 19038
Int'l Code: 1988-029A
Perigee: 763.1 km
Apogee: 798.4 km
Inclination: 74.0 °
Period: 100.3 minutes
Semi major axis: 7151 km
RCS: 2.2121 m2 (large)
Launch date: April 5, 1988
Source: Commonwealth of Independent States (former USSR) (CIS)
Launch site: PLESETSK MISSILE AND SPACE COMPLEX (PKMTR)
Your satellite tracking list
Your tracking list is empty




NASA's NSSDC Master Catalog

Two Line Element Set (TLE):
1 19038U 88029A   23158.92602263  .00000145  00000-0  59421-4 0  9992
2 19038  74.0461 331.8300 0024627 328.0434 144.8331 14.35437880841110
Source of the keplerian elements: AFSPC